Location: Bannatyne
(13.0833°N, 59.5333°W)
Time: 21:33:23
(UTC+00:00)

A-11 Canister half - All Passes

Search period start: 22 January 2020 00:00
Search period end: 01 February 2020 00:00
Orbit: 1517 x 1683 km, 47.2° (Epoch: 22 January)

Date Brightness Start Highest point End Pass type
(mag) Time Alt. Az. Time Alt. Az. Time Alt. Az.
22 Jan - 01:34:55 10° SSW 01:44:30 62° SE 01:53:43 10° NE visible
22 Jan - 03:41:24 10° W 03:49:31 31° NW 03:57:29 10° NNE night (unlit)
22 Jan - 10:11:02 10° N 10:17:14 19° NE 10:23:31 10° E daylight
22 Jan - 12:13:27 10° NW 12:22:53 83° NE 12:32:40 10° SE daylight
22 Jan - 14:21:03 10° W 14:27:29 20° SW 14:34:06 10° S daylight
23 Jan - 01:12:05 10° SSW 01:21:36 57° SE 01:30:46 10° NE visible
23 Jan - 03:18:10 10° WSW 03:26:33 34° NW 03:34:45 10° NNE night (unlit)
23 Jan - 09:48:25 10° N 09:54:12 18° NE 10:00:02 10° ENE visible
23 Jan - 11:50:35 10° NW 11:59:58 77° NE 12:09:41 10° SE daylight
23 Jan - 13:57:43 10° W 14:04:34 22° SW 14:11:38 10° S daylight
24 Jan - 00:49:17 10° SSW 00:58:42 53° SE 01:07:46 10° NE visible
24 Jan - 02:55:00 10° WSW 03:03:35 37° NW 03:12:00 10° NNE visible
24 Jan - 09:25:50 10° N 09:31:09 16° NE 09:36:31 10° ENE visible
24 Jan - 11:27:44 10° NW 11:37:04 71° NE 11:46:42 10° SE daylight
24 Jan - 13:34:27 10° WNW 13:41:39 25° SW 13:49:05 10° S daylight
25 Jan - 00:26:29 10° SSW 00:35:48 48° SE 00:44:46 10° ENE visible
25 Jan - 02:31:49 10° WSW 02:40:38 40° NW 02:49:14 10° NNE visible
25 Jan - 09:03:20 10° N 09:08:06 15° NNE 09:12:54 10° ENE visible
25 Jan - 11:04:53 10° NW 11:14:09 66° NE 11:23:41 10° SE daylight
25 Jan - 13:11:13 10° WNW 13:18:44 27° SW 13:26:31 10° S daylight
26 Jan - 00:03:42 10° SSW 00:12:53 44° SE 00:21:44 10° ENE visible
26 Jan - 02:08:39 10° WSW 02:17:41 43° NW 02:26:28 10° NNE visible
26 Jan - 08:40:51 10° N 08:45:02 13° NNE 08:49:13 10° ENE visible
26 Jan - 10:42:03 10° NNW 10:51:14 61° NE 11:00:40 10° SE daylight
26 Jan - 12:48:03 10° WNW 12:55:50 30° SW 13:03:53 10° S daylight
26 Jan - 23:40:58 10° SSW 23:49:59 41° SE 23:58:41 10° ENE visible
27 Jan - 01:45:32 10° WSW 01:54:44 47° NW 02:03:40 10° NNE visible
27 Jan - 04:00:47 10° NNW 04:01:31 10° NNW 04:02:15 10° NNW night (unlit)
27 Jan - 08:18:30 10° N 08:21:57 12° NNE 08:25:26 10° NE visible
27 Jan - 10:19:14 10° NNW 10:28:19 56° NE 10:37:37 10° ESE daylight
27 Jan - 12:24:53 10° WNW 12:32:56 32° SW 12:41:15 10° S daylight
27 Jan - 23:18:13 10° SSW 23:27:05 37° SE 23:35:37 10° ENE visible
28 Jan - 01:22:26 10° WSW 01:31:48 51° NW 01:40:53 10° NNE visible
28 Jan - 03:35:53 10° NW 03:38:24 11° NNW 03:40:55 10° NNW night (unlit)
28 Jan - 07:56:18 10° NNE 07:58:52 11° NNE 08:01:24 10° NE visible
28 Jan - 09:56:26 10° NNW 10:05:23 51° NE 10:14:33 10° ESE visible
28 Jan - 12:01:47 10° WNW 12:10:02 35° SW 12:18:34 10° S daylight
28 Jan - 22:55:32 10° S 23:04:10 34° SE 23:12:31 10° ENE visible
29 Jan - 00:59:21 10° WSW 01:08:51 55° NW 01:18:04 10° NNE visible
29 Jan - 03:11:49 10° NW 03:15:18 12° NNW 03:18:46 10° N night (unlit)
29 Jan - 07:34:45 10° NNE 07:35:45 10° NNE 07:36:45 10° NE visible
29 Jan - 09:33:38 10° NNW 09:42:28 47° NE 09:51:29 10° ESE visible
29 Jan - 11:38:42 10° WNW 11:47:09 39° SW 11:55:51 10° SSE daylight
29 Jan - 22:32:51 10° S 22:41:15 31° SE 22:49:22 10° ENE visible
30 Jan - 00:36:17 10° SW 00:45:56 59° NW 00:55:15 10° NNE visible
30 Jan - 02:47:58 10° WNW 02:52:13 13° NNW 02:56:25 10° N visible
30 Jan - 09:10:50 10° NNW 09:19:32 44° NE 09:28:22 10° ESE visible
30 Jan - 11:15:39 10° WNW 11:24:15 42° SW 11:33:07 10° SSE daylight
30 Jan - 22:10:13 10° S 22:18:20 28° SE 22:26:12 10° ENE visible
31 Jan - 00:13:14 10° SW 00:23:00 64° NW 00:32:25 10° NNE visible
31 Jan - 02:24:15 10° WNW 02:29:08 15° NNW 02:33:58 10° N visible
31 Jan - 08:48:03 10° NNW 08:56:35 40° NE 09:05:15 10° ESE visible
31 Jan - 10:52:37 10° WNW 11:01:21 46° SW 11:10:23 10° SSE daylight
31 Jan - 21:47:37 10° S 21:55:25 26° SE 22:02:59 10° ENE daylight
